| time (UTC) | temp F | wind direction | speed MPH | gust MPH | rain 1hr in | rain 24hr in | rain mn in | humidity % | barometer mb |
| 20260506035735 | 45 | 178 | 1.0 | 3.0 | 0.00 | 0.00 | 0.00 | 97 | 1015.0 |
| 20260506035236 | 45 | 302 | 1.0 | 2.0 | 0.00 | 0.00 | 0.00 | 97 | 1015.0 |
| 20260506034735 | 45 | 274 | 2.0 | 2.0 | 0.00 | 0.00 | 0.00 | 97 | 1015.0 |
| 20260506034236 | 45 | 293 | 1.0 | 2.0 | 0.00 | 0.00 | 0.00 | 97 | 1015.0 |
| 20260506033737 | 45 | 304 | 1.0 | 2.0 | 0.00 | 0.00 | 0.00 | 96 | 1015.0 |
| 20260506033235 | 45 | 150 | 0.0 | 1.0 | 0.00 | 0.00 | 0.00 | 96 | 1015.0 |
| 20260506032736 | 45 | 228 | 0.0 | 2.0 | 0.00 | 0.00 | 0.00 | 96 | 1015.0 |
| 20260506032235 | 45 | 300 | 1.0 | 2.0 | 0.00 | 0.00 | 0.00 | 96 | 1015.0 |
| 20260506031735 | 45 | 50 | 0.0 | 0.0 | 0.00 | 0.00 | 0.00 | 96 | 1014.0 |
| 20260506031236 | 45 | 129 | 0.0 | 0.0 | 0.00 | 0.00 | 0.00 | 96 | 1015.0 |
| 20260506030735 | 45 | 249 | 0.0 | 1.0 | 0.00 | 0.00 | 0.00 | 96 | 1014.0 |
| 20260506030235 | 45 | 16 | 0.0 | 0.0 | 0.00 | 0.00 | 0.00 | 96 | 1014.0 |
| 20260506025736 | 45 | 126 | 0.0 | 1.0 | 0.00 | 0.00 | 0.00 | 96 | 1014.0 |
| 20260506025235 | 44 | 230 | 0.0 | 2.0 | 0.00 | 0.00 | 0.00 | 96 | 1014.0 |
| 20260506024735 | 45 | 16 | 1.0 | 2.0 | 0.00 | 0.00 | 0.00 | 96 | 1014.0 |
| 20260506024235 | 45 | 80 | 1.0 | 2.0 | 0.00 | 0.00 | 0.00 | 96 | 1014.0 |
| 20260506023735 | 45 | 51 | 0.0 | 1.0 | 0.00 | 0.00 | 0.00 | 96 | 1014.0 |
| 20260506023235 | 45 | 11 | 1.0 | 2.0 | 0.00 | 0.00 | 0.00 | 96 | 1014.0 |
| 20260506022736 | 45 | 261 | 0.0 | 2.0 | 0.00 | 0.00 | 0.00 | 96 | 1015.0 |
| 20260506022235 | 45 | 359 | 0.0 | 1.0 | 0.00 | 0.00 | 0.00 | 96 | 1014.0 |
| 20260506021735 | 45 | 346 | 1.0 | 1.0 | 0.00 | 0.00 | 0.00 | 96 | 1014.0 |
| 20260506021235 | 45 | 7 | 0.0 | 2.0 | 0.00 | 0.00 | 0.00 | 96 | 1014.0 |
| 20260506020736 | 45 | 5 | 0.0 | 2.0 | 0.00 | 0.00 | 0.00 | 95 | 1014.0 |
| 20260506020235 | 45 | 269 | 0.0 | 2.0 | 0.00 | 0.00 | 0.00 | 96 | 1014.0 |
| 20260506015735 | 45 | 113 | 0.0 | 1.0 | 0.00 | 0.00 | 0.00 | 95 | 1014.0 |
| 20260506015236 | 45 | 311 | 1.0 | 2.0 | 0.00 | 0.00 | 0.00 | 95 | 1014.0 |
| 20260506014736 | 45 | 310 | 1.0 | 2.0 | 0.00 | 0.00 | 0.00 | 95 | 1014.0 |
| 20260506014235 | 45 | 344 | 2.0 | 3.0 | 0.00 | 0.00 | 0.00 | 95 | 1014.0 |
| 20260506013736 | 45 | 283 | 0.0 | 2.0 | 0.00 | 0.00 | 0.00 | 95 | 1014.0 |
| 20260506013236 | 45 | 217 | 0.0 | 3.0 | 0.00 | 0.00 | 0.00 | 95 | 1014.0 |
| 20260506012736 | 45 | 39 | 2.0 | 3.0 | 0.00 | 0.00 | 0.00 | 95 | 1014.0 |
| 20260506012235 | 45 | 304 | 0.0 | 2.0 | 0.00 | 0.00 | 0.00 | 94 | 1014.0 |
| 20260506011735 | 45 | 89 | 0.0 | 2.0 | 0.00 | 0.00 | 0.00 | 94 | 1014.0 |
| 20260506011236 | 45 | 89 | 0.0 | 3.0 | 0.00 | 0.00 | 0.00 | 94 | 1014.0 |
| 20260506010735 | 45 | 18 | 3.0 | 5.0 | 0.00 | 0.00 | 0.00 | 94 | 1013.0 |
| 20260506010235 | 45 | 352 | 3.0 | 3.0 | 0.00 | 0.00 | 0.00 | 94 | 1014.0 |
| 20260506005736 | 45 | 132 | 0.0 | 4.0 | 0.00 | 0.00 | 0.00 | 94 | 1013.0 |
| 20260506005236 | 45 | 248 | 2.0 | 3.0 | 0.00 | 0.00 | 0.00 | 94 | 1014.0 |
| 20260506004736 | 45 | 42 | 4.0 | 5.0 | 0.00 | 0.00 | 0.00 | 94 | 1014.0 |
| 20260506004235 | 46 | 6 | 2.0 | 4.0 | 0.00 | 0.00 | 0.00 | 94 | 1013.0 |
| 20260506003735 | 46 | 320 | 3.0 | 5.0 | 0.00 | 0.00 | 0.00 | 94 | 1013.0 |
| 20260506003235 | 46 | 315 | 5.0 | 5.0 | 0.00 | 0.00 | 0.00 | 95 | 1013.0 |
| 20260506002736 | 46 | 334 | 3.0 | 3.0 | 0.00 | 0.00 | 0.00 | 94 | 1013.0 |
| 20260506002236 | 46 | 89 | 0.0 | 2.0 | 0.00 | 0.00 | 0.00 | 94 | 1013.0 |
| 20260506001735 | 46 | 9 | 0.0 | 7.0 | 0.00 | 0.00 | 0.00 | 94 | 1013.0 |
| 20260506001235 | 46 | 340 | 2.0 | 3.0 | 0.00 | 0.00 | 0.00 | 94 | 1013.0 |
| 20260506000736 | 46 | 258 | 0.0 | 3.0 | 0.00 | 0.00 | 0.00 | 94 | 1013.0 |
| 20260506000235 | 46 | 312 | 3.0 | 4.0 | 0.00 | 0.00 | 0.00 | 94 | 1013.0 |
| 20260505235735 | 46 | 0 | 2.0 | 5.0 | 0.00 | 0.00 | 0.00 | 94 | 1013.0 |
| 20260505235236 | 46 | 298 | 0.0 | 3.0 | 0.00 | 0.00 | 0.00 | 94 | 1013.0 |
| 20260505234735 | 46 | 262 | 0.0 | 4.0 | 0.00 | 0.00 | 0.00 | 94 | 1013.0 |
| 20260505234235 | 46 | 271 | 0.0 | 3.0 | 0.00 | 0.00 | 0.00 | 94 | 1013.0 |
| 20260505233736 | 46 | 2 | 2.0 | 3.0 | 0.00 | 0.00 | 0.00 | 94 | 1012.0 |
| 20260505233235 | 47 | 323 | 2.0 | 3.0 | 0.00 | 0.00 | 0.00 | 93 | 1012.0 |
| 20260505232735 | 47 | 14 | 3.0 | 3.0 | 0.00 | 0.00 | 0.00 | 93 | 1012.0 |
| 20260505232235 | 47 | 323 | 3.0 | 5.0 | 0.00 | 0.00 | 0.00 | 93 | 1013.0 |
| 20260505231736 | 47 | 294 | 1.0 | 4.0 | 0.00 | 0.00 | 0.00 | 92 | 1012.0 |
| 20260505231236 | 47 | 272 | 3.0 | 3.0 | 0.00 | 0.00 | 0.00 | 92 | 1012.0 |
| 20260505230735 | 47 | 293 | 2.0 | 5.0 | 0.00 | 0.00 | 0.00 | 92 | 1012.0 |
| 20260505230236 | 48 | 321 | 3.0 | 4.0 | 0.00 | 0.00 | 0.00 | 92 | 1012.0 |
| 20260505225736 | 48 | 32 | 0.0 | 3.0 | 0.00 | 0.00 | 0.00 | 91 | 1012.0 |
| 20260505225235 | 48 | 42 | 2.0 | 3.0 | 0.00 | 0.00 | 0.00 | 91 | 1012.0 |
| 20260505224735 | 48 | 317 | 2.0 | 3.0 | 0.00 | 0.00 | 0.00 | 90 | 1012.0 |
| 20260505224236 | 48 | 306 | 1.0 | 3.0 | 0.00 | 0.00 | 0.00 | 89 | 1012.0 |
| 20260505223736 | 48 | 302 | 2.0 | 4.0 | 0.00 | 0.00 | 0.00 | 89 | 1012.0 |
| 20260505223236 | 48 | 325 | 3.0 | 5.0 | 0.00 | 0.00 | 0.00 | 88 | 1012.0 |
| 20260505222735 | 48 | 49 | 3.0 | 4.0 | 0.00 | 0.00 | 0.00 | 89 | 1011.0 |
| 20260505222235 | 48 | 3 | 0.0 | 3.0 | 0.00 | 0.00 | 0.00 | 89 | 1012.0 |
| 20260505221735 | 48 | 14 | 0.0 | 2.0 | 0.00 | 0.00 | 0.00 | 89 | 1012.0 |
| 20260505221235 | 48 | 315 | 2.0 | 4.0 | 0.00 | 0.00 | 0.00 | 89 | 1012.0 |
| 20260505220735 | 48 | 43 | 4.0 | 4.0 | 0.00 | 0.00 | 0.00 | 89 | 1012.0 |
| 20260505220237 | 48 | 328 | 3.0 | 4.0 | 0.00 | 0.00 | 0.00 | 89 | 1012.0 |
| 20260505215735 | 48 | 336 | 3.0 | 4.0 | 0.00 | 0.00 | 0.00 | 90 | 1012.0 |
| 20260505215235 | 48 | 332 | 4.0 | 4.0 | 0.00 | 0.00 | 0.00 | 90 | 1012.0 |
| 20260505214735 | 48 | 326 | 2.0 | 4.0 | 0.00 | 0.00 | 0.00 | 89 | 1012.0 |
| 20260505214235 | 48 | 321 | 1.0 | 3.0 | 0.00 | 0.00 | 0.00 | 89 | 1012.0 |
| 20260505213736 | 48 | 257 | 1.0 | 5.0 | 0.00 | 0.00 | 0.00 | 89 | 1012.0 |
| 20260505213235 | 48 | 15 | 2.0 | 4.0 | 0.00 | 0.00 | 0.00 | 89 | 1012.0 |
| 20260505212735 | 48 | 348 | 2.0 | 3.0 | 0.00 | 0.00 | 0.00 | 89 | 1012.0 |
| 20260505212235 | 48 | 35 | 1.0 | 3.0 | 0.00 | 0.00 | 0.00 | 89 | 1012.0 |
| 20260505211735 | 47 | 80 | 0.0 | 6.0 | 0.00 | 0.00 | 0.00 | 89 | 1012.0 |
| 20260505211236 | 48 | 5 | 2.0 | 4.0 | 0.00 | 0.00 | 0.00 | 89 | 1012.0 |
| 20260505210735 | 48 | 32 | 1.0 | 4.0 | 0.00 | 0.00 | 0.00 | 89 | 1012.0 |
| 20260505210236 | 48 | 6 | 1.0 | 5.0 | 0.00 | 0.00 | 0.00 | 88 | 1012.0 |
| 20260505205736 | 48 | 312 | 0.0 | 3.0 | 0.00 | 0.00 | 0.00 | 89 | 1013.0 |
| 20260505205235 | 48 | 324 | 2.0 | 4.0 | 0.00 | 0.00 | 0.00 | 88 | 1012.0 |
| 20260505204735 | 48 | 337 | 2.0 | 4.0 | 0.00 | 0.00 | 0.00 | 87 | 1013.0 |
| 20260505204235 | 49 | 313 | 3.0 | 3.0 | 0.00 | 0.00 | 0.00 | 86 | 1012.0 |
| 20260505203738 | 49 | 132 | 1.0 | 4.0 | 0.00 | 0.00 | 0.00 | 84 | 1013.0 |
| 20260505203236 | 49 | 321 | 2.0 | 3.0 | 0.00 | 0.00 | 0.00 | 84 | 1013.0 |
| 20260505202735 | 49 | 19 | 3.0 | 6.0 | 0.00 | 0.00 | 0.00 | 83 | 1012.0 |
| 20260505202235 | 49 | 0 | 0.0 | 5.0 | 0.00 | 0.00 | 0.00 | 84 | 1012.0 |
| 20260505201736 | 48 | 307 | 3.0 | 4.0 | 0.00 | 0.00 | 0.00 | 84 | 1012.0 |
| 20260505201236 | 48 | 13 | 3.0 | 5.0 | 0.00 | 0.00 | 0.00 | 85 | 1012.0 |
| 20260505200735 | 48 | 276 | 4.0 | 4.0 | 0.00 | 0.00 | 0.00 | 84 | 1013.0 |
| 20260505200237 | 49 | 320 | 2.0 | 4.0 | 0.00 | 0.00 | 0.00 | 84 | 1013.0 |
| 20260505195735 | 49 | 305 | 4.0 | 6.0 | 0.00 | 0.00 | 0.00 | 83 | 1013.0 |
| 20260505195236 | 49 | 21 | 2.0 | 6.0 | 0.00 | 0.00 | 0.00 | 81 | 1013.0 |
| 20260505194735 | 49 | 314 | 3.0 | 4.0 | 0.00 | 0.00 | 0.00 | 80 | 1013.0 |
| 20260505194236 | 50 | 358 | 3.0 | 4.0 | 0.00 | 0.00 | 0.00 | 81 | 1013.0 |
| 20260505193735 | 50 | 333 | 5.0 | 7.0 | 0.00 | 0.00 | 0.00 | 79 | 1013.0 |
| 20260505193235 | 50 | 45 | 3.0 | 10.0 | 0.00 | 0.00 | 0.00 | 79 | 1013.0 |
| 20260505192735 | 50 | 320 | 6.0 | 7.0 | 0.00 | 0.00 | 0.00 | 78 | 1013.0 |
| 20260505192236 | 51 | 317 | 6.0 | 7.0 | 0.00 | 0.00 | 0.00 | 77 | 1013.0 |
| 20260505191735 | 51 | 133 | 3.0 | 5.0 | 0.00 | 0.00 | 0.00 | 78 | 1012.0 |
| 20260505191236 | 51 | 61 | 3.0 | 5.0 | 0.00 | 0.00 | 0.00 | 76 | 1012.0 |
| 20260505190736 | 51 | 31 | 1.0 | 10.0 | 0.00 | 0.00 | 0.00 | 74 | 1012.0 |
| 20260505190236 | 51 | 340 | 4.0 | 5.0 | 0.00 | 0.00 | 0.00 | 75 | 1012.0 |
| 20260505185735 | 52 | 336 | 6.0 | 7.0 | 0.00 | 0.00 | 0.00 | 75 | 1012.0 |
| 20260505185237 | 52 | 6 | 4.0 | 7.0 | 0.00 | 0.00 | 0.00 | 74 | 1012.0 |
| 20260505184736 | 52 | 12 | 3.0 | 5.0 | 0.00 | 0.00 | 0.00 | 76 | 1012.0 |
| 20260505184235 | 52 | 267 | 1.0 | 7.0 | 0.00 | 0.00 | 0.00 | 79 | 1012.0 |
| 20260505183737 | 52 | 65 | 2.0 | 4.0 | 0.00 | 0.00 | 0.00 | 78 | 1012.0 |
| 20260505183235 | 52 | 296 | 3.0 | 4.0 | 0.00 | 0.00 | 0.00 | 79 | 1013.0 |
| 20260505182736 | 52 | 303 | 1.0 | 2.0 | 0.00 | 0.00 | 0.00 | 78 | 1013.0 |
| 20260505182236 | 52 | 348 | 0.0 | 3.0 | 0.00 | 0.00 | 0.00 | 79 | 1012.0 |
| 20260505181735 | 52 | 324 | 3.0 | 4.0 | 0.00 | 0.00 | 0.00 | 80 | 1012.0 |
| 20260505181235 | 52 | 332 | 3.0 | 4.0 | 0.00 | 0.00 | 0.00 | 80 | 1013.0 |
| 20260505180735 | 52 | 319 | 0.0 | 4.0 | 0.00 | 0.00 | 0.00 | 78 | 1013.0 |
| 20260505180236 | 52 | 346 | 3.0 | 4.0 | 0.00 | 0.00 | 0.00 | 80 | 1013.0 |
| 20260505175736 | 52 | 341 | 3.0 | 4.0 | 0.00 | 0.00 | 0.00 | 79 | 1013.0 |
| 20260505175236 | 53 | 359 | 1.0 | 5.0 | 0.00 | 0.00 | 0.00 | 79 | 1013.0 |
| 20260505174736 | 53 | 340 | 4.0 | 6.0 | 0.00 | 0.00 | 0.00 | 81 | 1013.0 |
| 20260505174235 | 53 | 343 | 4.0 | 4.0 | 0.00 | 0.00 | 0.00 | 79 | 1013.0 |
| 20260505173735 | 53 | 313 | 2.0 | 4.0 | 0.00 | 0.00 | 0.00 | 77 | 1013.0 |
| 20260505173236 | 53 | 328 | 3.0 | 4.0 | 0.00 | 0.00 | 0.00 | 80 | 1013.0 |
| 20260505172736 | 53 | 330 | 3.0 | 4.0 | 0.00 | 0.00 | 0.00 | 81 | 1012.0 |
| 20260505172236 | 53 | 318 | 0.0 | 2.0 | 0.00 | 0.00 | 0.00 | 80 | 1013.0 |
| 20260505171735 | 53 | 310 | 2.0 | 3.0 | 0.00 | 0.00 | 0.00 | 78 | 1013.0 |
| 20260505171237 | 53 | 313 | 2.0 | 4.0 | 0.00 | 0.00 | 0.00 | 78 | 1013.0 |
| 20260505170735 | 53 | 309 | 3.0 | 4.0 | 0.00 | 0.00 | 0.00 | 77 | 1012.0 |
| 20260505170236 | 54 | 70 | 0.0 | 5.0 | 0.00 | 0.00 | 0.00 | 75 | 1012.0 |
| 20260505165736 | 54 | 10 | 1.0 | 3.0 | 0.00 | 0.00 | 0.00 | 75 | 1012.0 |
| 20260505165235 | 54 | 312 | 3.0 | 3.0 | 0.00 | 0.00 | 0.00 | 74 | 1012.0 |
| 20260505164735 | 54 | 27 | 1.0 | 5.0 | 0.00 | 0.00 | 0.00 | 71 | 1012.0 |
| 20260505164236 | 54 | 30 | 2.0 | 3.0 | 0.00 | 0.00 | 0.00 | 74 | 1012.0 |
| 20260505163737 | 54 | 0 | 2.0 | 3.0 | 0.00 | 0.00 | 0.00 | 70 | 1012.0 |
| 20260505163235 | 54 | 0 | 2.0 | 5.0 | 0.00 | 0.00 | 0.00 | 70 | 1012.0 |
| 20260505162735 | 54 | 49 | 0.0 | 5.0 | 0.00 | 0.00 | 0.00 | 70 | 1012.0 |
| 20260505162236 | 54 | 256 | 0.0 | 2.0 | 0.00 | 0.00 | 0.00 | 70 | 1012.0 |
| 20260505161736 | 54 | 355 | 2.0 | 3.0 | 0.00 | 0.00 | 0.00 | 71 | 1012.0 |
| 20260505161235 | 54 | 357 | 0.0 | 2.0 | 0.00 | 0.00 | 0.00 | 75 | 1012.0 |
| 20260505160736 | 54 | 30 | 1.0 | 3.0 | 0.00 | 0.00 | 0.00 | 72 | 1012.0 |
| 20260505160236 | 54 | 12 | 1.0 | 4.0 | 0.00 | 0.00 | 0.00 | 76 | 1012.0 |
| 20260505153240 | 53 | 69 | 1.0 | 2.0 | 0.00 | 0.00 | 0.00 | 78 | 1011.0 |
| 20260505152736 | 53 | 201 | 1.0 | 8.0 | 0.00 | 0.00 | 0.00 | 77 | 1011.0 |
| 20260505152235 | 52 | 22 | 5.0 | 5.0 | 0.00 | 0.00 | 0.00 | 77 | 1011.0 |
| 20260505151735 | 52 | 349 | 2.0 | 6.0 | 0.00 | 0.00 | 0.00 | 79 | 1011.0 |
| 20260505151236 | 52 | 336 | 3.0 | 6.0 | 0.00 | 0.00 | 0.00 | 81 | 1011.0 |
| 20260505150735 | 51 | 50 | 5.0 | 9.0 | 0.00 | 0.00 | 0.00 | 78 | 1011.0 |
| 20260505150236 | 51 | 354 | 4.0 | 6.0 | 0.00 | 0.00 | 0.00 | 78 | 1011.0 |
| 20260505140237 | 50 | 299 | 2.0 | 5.0 | 0.00 | 0.00 | 0.00 | 87 | 1010.0 |
| 20260505130236 | 48 | 326 | 2.0 | 7.0 | 0.00 | 0.00 | 0.00 | 90 | 1010.0 |
| 20260505124736 | 49 | 107 | 2.0 | 7.0 | 0.00 | 0.00 | 0.00 | 90 | 1012.0 |
| 20260505124235 | 49 | 288 | 3.0 | 8.0 | 0.00 | 0.00 | 0.00 | 90 | 1012.0 |
| 20260505123739 | 49 | 301 | 4.0 | 9.0 | 0.00 | 0.00 | 0.00 | 89 | 1012.0 |
| 20260505123235 | 50 | 301 | 3.0 | 7.0 | 0.00 | 0.00 | 0.00 | 88 | 1012.0 |
| 20260505122736 | 50 | 346 | 5.0 | 8.0 | 0.00 | 0.00 | 0.00 | 87 | 1011.0 |
| 20260505122235 | 50 | 341 | 3.0 | 7.0 | 0.00 | 0.00 | 0.00 | 86 | 1011.0 |
| 20260505121735 | 50 | 14 | 3.0 | 7.0 | 0.00 | 0.00 | 0.00 | 87 | 1011.0 |
| 20260505121236 | 50 | 292 | 3.0 | 8.0 | 0.00 | 0.00 | 0.00 | 90 | 1011.0 |
| 20260505120735 | 51 | 296 | 5.0 | 7.0 | 0.00 | 0.00 | 0.00 | 89 | 1011.0 |
| 20260505120236 | 51 | 322 | 6.0 | 11.0 | 0.00 | 0.00 | 0.00 | 89 | 1010.0 |
| 20260505115737 | 51 | 310 | 8.0 | 9.0 | 0.00 | 0.00 | 0.00 | 88 | 1011.0 |
| 20260505115236 | 52 | 294 | 6.0 | 8.0 | 0.00 | 0.00 | 0.00 | 86 | 1010.0 |
| 20260505114735 | 53 | 358 | 3.0 | 9.0 | 0.00 | 0.00 | 0.00 | 86 | 1010.0 |
| 20260505114236 | 53 | 342 | 9.0 | 10.0 | 0.00 | 0.00 | 0.00 | 84 | 1010.0 |
| 20260505113735 | 53 | 336 | 4.0 | 5.0 | 0.00 | 0.00 | 0.00 | 83 | 1010.0 |
| 20260505113236 | 53 | 249 | 2.0 | 2.0 | 0.00 | 0.00 | 0.00 | 83 | 1010.0 |
| 20260505112735 | 53 | 300 | 3.0 | 4.0 | 0.00 | 0.00 | 0.00 | 84 | 1009.0 |
| 20260505112235 | 53 | 332 | 2.0 | 4.0 | 0.00 | 0.00 | 0.00 | 85 | 1009.0 |
| 20260505111737 | 54 | 319 | 2.0 | 3.0 | 0.00 | 0.00 | 0.00 | 81 | 1009.0 |
| 20260505111236 | 54 | 311 | 1.0 | 6.0 | 0.00 | 0.00 | 0.00 | 81 | 1009.0 |
| 20260505110735 | 55 | 19 | 7.0 | 7.0 | 0.00 | 0.00 | 0.00 | 81 | 1008.0 |
| 20260505110236 | 55 | 12 | 5.0 | 9.0 | 0.00 | 0.00 | 0.00 | 81 | 1008.0 |
| 20260505101736 | 58 | 340 | 6.0 | 9.0 | 0.00 | 0.00 | 0.00 | 87 | 1008.0 |
| 20260505101235 | 59 | 356 | 3.0 | 6.0 | 0.00 | 0.00 | 0.00 | 87 | 1008.0 |
| 20260505100735 | 59 | 332 | 5.0 | 7.0 | 0.00 | 0.00 | 0.00 | 86 | 1007.0 |
| 20260505100235 | 60 | 339 | 2.0 | 5.0 | 0.00 | 0.00 | 0.00 | 86 | 1007.0 |
| 20260505095736 | 60 | 10 | 3.0 | 5.0 | 0.00 | 0.00 | 0.00 | 84 | 1008.0 |
| 20260505095235 | 60 | 19 | 2.0 | 7.0 | 0.00 | 0.00 | 0.00 | 82 | 1007.0 |
| 20260505094736 | 61 | 332 | 5.0 | 5.0 | 0.00 | 0.00 | 0.00 | 80 | 1007.0 |
| 20260505094235 | 63 | 319 | 5.0 | 9.0 | 0.00 | 0.00 | 0.00 | 72 | 1007.0 |
| 20260505093735 | 65 | 317 | 1.0 | 2.0 | 0.00 | 0.00 | 0.00 | 64 | 1007.0 |
| 20260505093235 | 65 | 94 | 0.0 | 2.0 | 0.00 | 0.00 | 0.00 | 60 | 1006.0 |
| 20260505092735 | 65 | 86 | 2.0 | 3.0 | 0.00 | 0.00 | 0.00 | 59 | 1007.0 |
| 20260505092235 | 65 | 106 | 4.0 | 4.0 | 0.00 | 0.00 | 0.00 | 60 | 1007.0 |
| 20260505091736 | 66 | 108 | 1.0 | 2.0 | 0.00 | 0.00 | 0.00 | 60 | 1007.0 |
| 20260505091236 | 66 | 119 | 1.0 | 3.0 | 0.00 | 0.00 | 0.00 | 59 | 1007.0 |
| 20260505090735 | 66 | 97 | 3.0 | 6.0 | 0.00 | 0.00 | 0.00 | 59 | 1007.0 |
| 20260505090236 | 66 | 124 | 1.0 | 4.0 | 0.00 | 0.00 | 0.00 | 59 | 1007.0 |
| 20260505085735 | 66 | 100 | 3.0 | 5.0 | 0.00 | 0.00 | 0.00 | 59 | 1007.0 |
| 20260505085236 | 66 | 144 | 1.0 | 3.0 | 0.00 | 0.00 | 0.00 | 60 | 1007.0 |
| 20260505084735 | 66 | 117 | 0.0 | 3.0 | 0.00 | 0.00 | 0.00 | 61 | 1007.0 |
| 20260505084235 | 66 | 105 | 3.0 | 3.0 | 0.00 | 0.00 | 0.00 | 61 | 1007.0 |
| 20260505083735 | 66 | 129 | 0.0 | 2.0 | 0.00 | 0.00 | 0.00 | 61 | 1007.0 |
| 20260505083236 | 66 | 160 | 0.0 | 3.0 | 0.00 | 0.00 | 0.00 | 60 | 1006.0 |
| 20260505082736 | 66 | 92 | 2.0 | 3.0 | 0.00 | 0.00 | 0.00 | 60 | 1007.0 |
| 20260505082236 | 66 | 149 | 1.0 | 3.0 | 0.00 | 0.00 | 0.00 | 60 | 1007.0 |
| 20260505081736 | 66 | 104 | 3.0 | 4.0 | 0.00 | 0.00 | 0.00 | 60 | 1007.0 |
| 20260505081236 | 67 | 358 | 0.0 | 2.0 | 0.00 | 0.00 | 0.00 | 59 | 1007.0 |
| 20260505080735 | 67 | 114 | 1.0 | 3.0 | 0.00 | 0.00 | 0.00 | 59 | 1007.0 |
| 20260505080236 | 67 | 60 | 0.0 | 2.0 | 0.00 | 0.00 | 0.00 | 58 | 1007.0 |
| 20260505075736 | 67 | 130 | 0.0 | 3.0 | 0.00 | 0.00 | 0.00 | 58 | 1007.0 |
| 20260505075235 | 67 | 224 | 0.0 | 0.0 | 0.00 | 0.00 | 0.00 | 60 | 1007.0 |
| 20260505074736 | 67 | 195 | 0.0 | 1.0 | 0.00 | 0.00 | 0.00 | 59 | 1007.0 |
| 20260505074235 | 67 | 213 | 0.0 | 1.0 | 0.00 | 0.00 | 0.00 | 58 | 1007.0 |
| 20260505073736 | 67 | 315 | 0.0 | 1.0 | 0.00 | 0.00 | 0.00 | 57 | 1007.0 |
| 20260505073235 | 68 | 250 | 0.0 | 1.0 | 0.00 | 0.00 | 0.00 | 58 | 1007.0 |
| 20260505072736 | 68 | 359 | 2.0 | 3.0 | 0.00 | 0.00 | 0.00 | 56 | 1007.0 |
| 20260505072235 | 68 | 55 | 1.0 | 3.0 | 0.00 | 0.00 | 0.00 | 56 | 1007.0 |
| 20260505071735 | 68 | 38 | 3.0 | 5.0 | 0.00 | 0.00 | 0.00 | 56 | 1007.0 |
| 20260505071235 | 68 | 50 | 0.0 | 8.0 | 0.00 | 0.00 | 0.00 | 56 | 1007.0 |
| 20260505070737 | 68 | 354 | 2.0 | 5.0 | 0.00 | 0.00 | 0.00 | 57 | 1007.0 |
| 20260505070235 | 68 | 340 | 6.0 | 7.0 | 0.00 | 0.00 | 0.00 | 58 | 1007.0 |
| 20260505065735 | 69 | 349 | 2.0 | 4.0 | 0.00 | 0.00 | 0.00 | 59 | 1007.0 |
| 20260505065236 | 69 | 249 | 1.0 | 2.0 | 0.00 | 0.00 | 0.00 | 57 | 1006.0 |
| 20260505064735 | 69 | 268 | 2.0 | 3.0 | 0.00 | 0.00 | 0.00 | 56 | 1006.0 |
| 20260505064236 | 69 | 236 | 1.0 | 4.0 | 0.00 | 0.00 | 0.00 | 56 | 1006.0 |
| 20260505063735 | 69 | 243 | 1.0 | 2.0 | 0.00 | 0.00 | 0.00 | 56 | 1006.0 |
| 20260505063238 | 69 | 274 | 1.0 | 3.0 | 0.00 | 0.00 | 0.00 | 56 | 1006.0 |
| 20260505062735 | 69 | 211 | 0.0 | 2.0 | 0.00 | 0.00 | 0.00 | 56 | 1006.0 |
| 20260505062236 | 70 | 246 | 1.0 | 2.0 | 0.00 | 0.00 | 0.00 | 56 | 1006.0 |
| 20260505061735 | 70 | 223 | 0.0 | 2.0 | 0.00 | 0.00 | 0.00 | 56 | 1006.0 |
| 20260505061235 | 70 | 259 | 3.0 | 5.0 | 0.00 | 0.00 | 0.00 | 56 | 1006.0 |
| 20260505060735 | 70 | 219 | 1.0 | 2.0 | 0.00 | 0.00 | 0.00 | 56 | 1006.0 |
| 20260505060235 | 70 | 236 | 0.0 | 6.0 | 0.00 | 0.00 | 0.00 | 55 | 1006.0 |
| 20260505055735 | 70 | 261 | 2.0 | 5.0 | 0.00 | 0.00 | 0.00 | 55 | 1006.0 |
| 20260505055235 | 70 | 300 | 1.0 | 3.0 | 0.00 | 0.00 | 0.00 | 55 | 1006.0 |
| 20260505054735 | 70 | 259 | 2.0 | 3.0 | 0.00 | 0.00 | 0.00 | 55 | 1006.0 |
| 20260505054236 | 70 | 227 | 2.0 | 3.0 | 0.00 | 0.00 | 0.00 | 54 | 1006.0 |
| 20260505053736 | 71 | 312 | 2.0 | 4.0 | 0.00 | 0.00 | 0.00 | 54 | 1006.0 |
| 20260505053235 | 71 | 283 | 2.0 | 6.0 | 0.00 | 0.00 | 0.00 | 54 | 1005.0 |
| 20260505052736 | 71 | 229 | 3.0 | 8.0 | 0.00 | 0.00 | 0.00 | 54 | 1005.0 |
| 20260505052235 | 71 | 250 | 3.0 | 3.0 | 0.00 | 0.00 | 0.00 | 54 | 1005.0 |
| 20260505051735 | 71 | 241 | 2.0 | 4.0 | 0.00 | 0.00 | 0.00 | 54 | 1005.0 |
| 20260505051235 | 71 | 177 | 0.0 | 5.0 | 0.00 | 0.00 | 0.00 | 54 | 1005.0 |
| 20260505050736 | 71 | 240 | 0.0 | 4.0 | 0.00 | 0.00 | 0.00 | 54 | 1005.0 |
| 20260505050235 | 71 | 193 | 1.0 | 3.0 | 0.00 | 0.00 | 0.00 | 54 | 1005.0 |
| 20260505041735 | 71 | 257 | 1.0 | 3.0 | 0.00 | 0.00 | 0.00 | 54 | 1005.0 |
| 20260505041235 | 71 | 235 | 1.0 | 2.0 | 0.00 | 0.00 | 0.00 | 54 | 1005.0 |
| 20260505040735 | 71 | 251 | 0.0 | 2.0 | 0.00 | 0.00 | 0.00 | 54 | 1005.0 |
| 20260505040235 | 71 | 246 | 3.0 | 3.0 | 0.00 | 0.00 | 0.00 | 53 | 1005.0 |